カタログに戻る

MOLNIYA 3-40

運用中通信HEO
NORAD 21196·PAYLOAD·🇷🇺 Russia

打ち上げ Mar 22, 1991 から Plesetsk Cosmodrome

Loading…

次のパス (今後24時間)

TLE

最新Source: Space-Track

元期: Sep 13, 2026, 00:40 UTC

1 21196U 91022A   26256.02846174  .00001150  00000-0  00000-0 0  9993
2 21196  64.7118 181.2980 6454028 252.3903  31.3938  2.03001583261121

AllMySatでMOLNIYA 3-40をリアルタイム追跡

Download on the App Store